FFT3644 KLAX-KPHX

Flight info

Callsign FFT3644
Flight time 0h 58m
Altitude 39000
Route DOTSS2 CNERY BLH HYDRR1
Aircraft A20N/M-SDE2E3FGHIRWXY/LB1

Departure

Time 2026-05-04 01:59
Airport Los Angeles International Airport (KLAX)

Arrival

Time 2026-05-04 02:58
Airport Phoenix Sky Harbor International Airport (KPHX)
Time Latitude Longitude Altitude Speed Heading
2026-05-04 01:29 33.94177 -118.41102 129 ft 0 kts 82°
2026-05-04 01:48 33.94175 -118.41118 124 ft 3 kts 82°
2026-05-04 01:48 33.94172 -118.41140 126 ft 3 kts 82°
2026-05-04 01:48 33.94170 -118.41162 125 ft 2 kts 85°
2026-05-04 01:48 33.94173 -118.41183 125 ft 3 kts 125°
2026-05-04 01:49 33.94188 -118.41198 124 ft 3 kts 166°
2026-05-04 01:49 33.94192 -118.41199 125 ft 0 kts 176°
2026-05-04 01:51 33.94184 -118.41200 126 ft 5 kts 184°
2026-05-04 01:51 33.94115 -118.41199 126 ft 14 kts 174°
2026-05-04 01:52 33.94012 -118.41185 125 ft 15 kts 172°
2026-05-04 01:52 33.93904 -118.41167 126 ft 15 kts 173°
2026-05-04 01:52 33.93799 -118.41151 124 ft 15 kts 168°
2026-05-04 01:52 33.93769 -118.41083 129 ft 9 kts 86°
2026-05-04 01:53 33.93777 -118.40980 129 ft 14 kts 84°
2026-05-04 01:53 33.93790 -118.40863 129 ft 14 kts 82°
2026-05-04 01:53 33.93804 -118.40731 129 ft 23 kts 83°
2026-05-04 01:53 33.93825 -118.40511 124 ft 27 kts 83°
2026-05-04 01:54 33.93848 -118.40286 129 ft 27 kts 83°
2026-05-04 01:54 33.93870 -118.40068 128 ft 26 kts 83°
2026-05-04 01:54 33.93894 -118.39858 128 ft 25 kts 82°
2026-05-04 01:54 33.93914 -118.39648 127 ft 25 kts 84°
2026-05-04 01:55 33.93934 -118.39444 128 ft 24 kts 83°
2026-05-04 01:55 33.93955 -118.39245 125 ft 24 kts 82°
2026-05-04 01:55 33.93975 -118.39050 129 ft 23 kts 82°
2026-05-04 01:55 33.93995 -118.38859 129 ft 22 kts 85°
2026-05-04 01:56 33.94015 -118.38679 124 ft 21 kts 83°
2026-05-04 01:56 33.94033 -118.38504 128 ft 21 kts 84°
2026-05-04 01:56 33.94049 -118.38330 127 ft 21 kts 82°
2026-05-04 01:56 33.94067 -118.38162 129 ft 19 kts 84°
2026-05-04 01:57 33.94078 -118.38034 129 ft 0 kts 93°
2026-05-04 01:57 33.94077 -118.38024 129 ft 8 kts 105°
2026-05-04 01:57 33.94008 -118.37999 126 ft 12 kts 180°
2026-05-04 01:57 33.93982 -118.38035 120 ft 5 kts 259°
2026-05-04 01:58 33.93981 -118.38051 128 ft 0 kts 264°
2026-05-04 01:58 33.93981 -118.38052 128 ft 0 kts 264°
2026-05-04 01:58 33.93981 -118.38058 129 ft 1 kts 264°
2026-05-04 01:59 33.93971 -118.38178 129 ft 42 kts 264°
2026-05-04 01:59 33.93902 -118.38820 127 ft 110 kts 263°
2026-05-04 01:59 33.93790 -118.39944 243 ft 152 kts 261°
2026-05-04 01:59 33.93648 -118.41240 755 ft 162 kts 262°
2026-05-04 02:00 33.93473 -118.42633 1328 ft 172 kts 261°
2026-05-04 02:00 33.93260 -118.44071 1907 ft 182 kts 261°
2026-05-04 02:00 33.93415 -118.45686 2155 ft 209 kts 283°
2026-05-04 02:00 33.93755 -118.47512 2527 ft 235 kts 278°
2026-05-04 02:01 33.93958 -118.49519 3378 ft 245 kts 274°
2026-05-04 02:01 33.93990 -118.51592 4255 ft 252 kts 269°
2026-05-04 02:01 33.93912 -118.53735 4804 ft 258 kts 265°
2026-05-04 02:01 33.93532 -118.55830 5246 ft 261 kts 249°
2026-05-04 02:02 33.92550 -118.57678 6265 ft 263 kts 227°
2026-05-04 02:02 33.90996 -118.58860 7262 ft 268 kts 199°
2026-05-04 02:02 33.89142 -118.59005 8254 ft 274 kts 174°
2026-05-04 02:02 33.87269 -118.58465 9298 ft 277 kts 166°
2026-05-04 02:03 33.85434 -118.57778 10259 ft 280 kts 166°
2026-05-04 02:03 33.83502 -118.57050 10763 ft 300 kts 166°
2026-05-04 02:03 33.81425 -118.56288 11207 ft 319 kts 166°
2026-05-04 02:03 33.79280 -118.55511 11941 ft 327 kts 166°
2026-05-04 02:04 33.77100 -118.54726 12787 ft 331 kts 166°
2026-05-04 02:04 33.74866 -118.53926 13666 ft 334 kts 167°
2026-05-04 02:04 33.72654 -118.53079 14407 ft 341 kts 163°
2026-05-04 02:04 33.70555 -118.51633 15078 ft 356 kts 145°
2026-05-04 02:05 33.68940 -118.49271 15701 ft 377 kts 123°
2026-05-04 02:05 33.67904 -118.46353 16309 ft 390 kts 115°
2026-05-04 02:05 33.66999 -118.43238 16839 ft 398 kts 114°
2026-05-04 02:05 33.66092 -118.40057 17417 ft 406 kts 114°
2026-05-04 02:06 33.65171 -118.36849 17974 ft 414 kts 114°
2026-05-04 02:06 33.64511 -118.33425 18504 ft 429 kts 99°
2026-05-04 02:06 33.64388 -118.29836 19016 ft 437 kts 94°
2026-05-04 02:06 33.64400 -118.26155 19578 ft 442 kts 93°
2026-05-04 02:07 33.64425 -118.22433 20113 ft 447 kts 93°
2026-05-04 02:07 33.64443 -118.18685 20648 ft 451 kts 93°
2026-05-04 02:07 33.64453 -118.14928 21169 ft 456 kts 93°
2026-05-04 02:07 33.64458 -118.11094 21695 ft 460 kts 93°
2026-05-04 02:08 33.64458 -118.07209 22213 ft 465 kts 94°
2026-05-04 02:08 33.64456 -118.03353 22749 ft 469 kts 93°
2026-05-04 02:08 33.64452 -117.99422 23254 ft 473 kts 93°
2026-05-04 02:08 33.64446 -117.95421 23721 ft 477 kts 94°
2026-05-04 02:09 33.64439 -117.91462 24100 ft 482 kts 94°
2026-05-04 02:09 33.64430 -117.87409 24484 ft 487 kts 94°
2026-05-04 02:09 33.64416 -117.83309 24859 ft 491 kts 94°
2026-05-04 02:09 33.64155 -117.79263 25210 ft 490 kts 104°
2026-05-04 02:10 33.63387 -117.75280 25583 ft 489 kts 111°
2026-05-04 02:10 33.62443 -117.71370 25949 ft 492 kts 112°
2026-05-04 02:10 33.61455 -117.67409 26300 ft 496 kts 113°
2026-05-04 02:10 33.60454 -117.63402 26651 ft 500 kts 113°
2026-05-04 02:11 33.59468 -117.59442 26978 ft 504 kts 113°
2026-05-04 02:11 33.58459 -117.55382 27294 ft 509 kts 113°
2026-05-04 02:11 33.57440 -117.51274 27632 ft 512 kts 113°
2026-05-04 02:11 33.56416 -117.47154 27947 ft 516 kts 113°
2026-05-04 02:12 33.55397 -117.43052 28248 ft 520 kts 112°
2026-05-04 02:12 33.54356 -117.38877 28569 ft 524 kts 113°
2026-05-04 02:12 33.53303 -117.34652 28857 ft 527 kts 113°
2026-05-04 02:12 33.52263 -117.30484 29115 ft 531 kts 113°
2026-05-04 02:13 33.51212 -117.26197 29370 ft 537 kts 110°
2026-05-04 02:13 33.50535 -117.21735 29614 ft 549 kts 99°
2026-05-04 02:13 33.50357 -117.17185 29902 ft 553 kts 94°
2026-05-04 02:13 33.50297 -117.12543 30156 ft 557 kts 94°
2026-05-04 02:14 33.50251 -117.07917 30374 ft 560 kts 94°
2026-05-04 02:14 33.50199 -117.03221 30605 ft 563 kts 94°
2026-05-04 02:14 33.50140 -116.98492 30846 ft 565 kts 94°
2026-05-04 02:14 33.50077 -116.93857 31140 ft 566 kts 94°
2026-05-04 02:15 33.50009 -116.89122 31468 ft 566 kts 94°
2026-05-04 02:15 33.49937 -116.84374 31795 ft 566 kts 95°
2026-05-04 02:15 33.49865 -116.79714 32111 ft 567 kts 95°
2026-05-04 02:15 33.49789 -116.74965 32419 ft 567 kts 95°
2026-05-04 02:16 33.49711 -116.70204 32723 ft 567 kts 95°
2026-05-04 02:16 33.49632 -116.65505 33021 ft 568 kts 95°
2026-05-04 02:16 33.49550 -116.60744 33267 ft 569 kts 95°
2026-05-04 02:16 33.49467 -116.56053 33523 ft 571 kts 95°
2026-05-04 02:17 33.49379 -116.51252 33769 ft 572 kts 95°
2026-05-04 02:17 33.49291 -116.46483 34008 ft 573 kts 95°
2026-05-04 02:17 33.49205 -116.41694 34288 ft 572 kts 95°
2026-05-04 02:17 33.49134 -116.36988 34609 ft 571 kts 95°
2026-05-04 02:18 33.49066 -116.32206 34853 ft 571 kts 94°
2026-05-04 02:18 33.48995 -116.27454 35127 ft 571 kts 95°
2026-05-04 02:18 33.48922 -116.22662 35418 ft 571 kts 95°
2026-05-04 02:18 33.48848 -116.17956 35656 ft 571 kts 95°
2026-05-04 02:19 33.48771 -116.13173 35892 ft 570 kts 95°
2026-05-04 02:19 33.48697 -116.08475 36187 ft 569 kts 94°
2026-05-04 02:19 33.48922 -116.03724 36405 ft 572 kts 82°
2026-05-04 02:19 33.49871 -115.99076 36610 ft 572 kts 71°
2026-05-04 02:20 33.51134 -115.94586 36734 ft 571 kts 69°
2026-05-04 02:20 33.52465 -115.90091 36748 ft 567 kts 68°
2026-05-04 02:20 33.55085 -115.81236 36751 ft 563 kts 68°
2026-05-04 02:21 33.57674 -115.72388 36746 ft 563 kts 68°
2026-05-04 02:21 33.60239 -115.63560 36759 ft 562 kts 69°
2026-05-04 02:22 33.62214 -115.56124 36753 ft 563 kts 79°
2026-05-04 02:22 33.62505 -115.49934 36756 ft 554 kts 102°
2026-05-04 02:22 33.62075 -115.46934 36763 ft 547 kts 108°
2026-05-04 02:23 33.61475 -115.42386 36752 ft 555 kts 97°
2026-05-04 02:23 33.61304 -115.37743 36769 ft 556 kts 96°
2026-05-04 02:23 33.61161 -115.33110 36582 ft 564 kts 95°
2026-05-04 02:23 33.61038 -115.28366 36335 ft 566 kts 95°
2026-05-04 02:24 33.60919 -115.23636 36086 ft 566 kts 95°
2026-05-04 02:24 33.60800 -115.18950 35843 ft 566 kts 95°
2026-05-04 02:24 33.60677 -115.14206 35600 ft 567 kts 95°
2026-05-04 02:24 33.60551 -115.09467 35357 ft 567 kts 95°
2026-05-04 02:25 33.60424 -115.04779 35119 ft 568 kts 95°
2026-05-04 02:25 33.60293 -115.00023 34887 ft 568 kts 95°
2026-05-04 02:25 33.60161 -114.95269 34647 ft 569 kts 95°
2026-05-04 02:25 33.60026 -114.90516 34414 ft 569 kts 95°
2026-05-04 02:26 33.59892 -114.85819 34184 ft 569 kts 95°
2026-05-04 02:26 33.59752 -114.81035 33955 ft 570 kts 95°
2026-05-04 02:26 33.59506 -114.76291 33713 ft 566 kts 103°
2026-05-04 02:26 33.58790 -114.71723 33460 ft 562 kts 108°
2026-05-04 02:27 33.57912 -114.67134 33120 ft 559 kts 108°
2026-05-04 02:27 33.57026 -114.62647 32458 ft 556 kts 108°
2026-05-04 02:27 33.56133 -114.58126 31743 ft 553 kts 108°
2026-05-04 02:27 33.55251 -114.53642 31030 ft 546 kts 108°
2026-05-04 02:28 33.54398 -114.49290 30353 ft 537 kts 108°
2026-05-04 02:28 33.53548 -114.44955 29658 ft 528 kts 108°
2026-05-04 02:28 33.52710 -114.40691 28855 ft 519 kts 108°
2026-05-04 02:28 33.51898 -114.36562 28110 ft 510 kts 107°
2026-05-04 02:29 33.51088 -114.32447 27362 ft 502 kts 108°
2026-05-04 02:29 33.50297 -114.28439 26651 ft 493 kts 107°
2026-05-04 02:29 33.49513 -114.24464 25925 ft 484 kts 107°
2026-05-04 02:29 33.48740 -114.20562 25283 ft 475 kts 107°
2026-05-04 02:30 33.47985 -114.16755 24865 ft 463 kts 107°
2026-05-04 02:30 33.47248 -114.13051 24550 ft 459 kts 107°
2026-05-04 02:30 33.46500 -114.09304 24243 ft 457 kts 107°
2026-05-04 02:30 33.45768 -114.05647 23996 ft 455 kts 107°
2026-05-04 02:31 33.45029 -114.01966 23820 ft 452 kts 107°
2026-05-04 02:31 33.44294 -113.98306 23786 ft 450 kts 107°
2026-05-04 02:31 33.43560 -113.94660 23823 ft 449 kts 107°
2026-05-04 02:31 33.42838 -113.91075 23852 ft 448 kts 107°
2026-05-04 02:32 33.42105 -113.87425 23883 ft 448 kts 107°
2026-05-04 02:32 33.41374 -113.83792 23734 ft 454 kts 107°
2026-05-04 02:32 33.40629 -113.80096 23047 ft 457 kts 107°
2026-05-04 02:32 33.39892 -113.76437 22475 ft 454 kts 107°
2026-05-04 02:33 33.39155 -113.72775 22146 ft 444 kts 107°
2026-05-04 02:33 33.38437 -113.69212 22001 ft 432 kts 107°
2026-05-04 02:33 33.37739 -113.65762 21651 ft 427 kts 107°
2026-05-04 02:33 33.37033 -113.62293 21319 ft 426 kts 107°
2026-05-04 02:34 33.36342 -113.58900 21025 ft 424 kts 108°
2026-05-04 02:34 33.35645 -113.55477 20735 ft 421 kts 108°
2026-05-04 02:34 33.34950 -113.52071 20447 ft 419 kts 108°
2026-05-04 02:34 33.34265 -113.48716 20152 ft 417 kts 108°
2026-05-04 02:35 33.33596 -113.45322 19858 ft 415 kts 106°
2026-05-04 02:35 33.33007 -113.41981 19556 ft 413 kts 105°
2026-05-04 02:35 33.32427 -113.38604 19256 ft 411 kts 105°
2026-05-04 02:35 33.31861 -113.35304 18962 ft 408 kts 105°
2026-05-04 02:36 33.31288 -113.31974 18661 ft 406 kts 105°
2026-05-04 02:36 33.30720 -113.28686 18379 ft 404 kts 105°
2026-05-04 02:36 33.30152 -113.25407 18111 ft 401 kts 105°
2026-05-04 02:36 33.29609 -113.22120 17807 ft 400 kts 104°
2026-05-04 02:37 33.29135 -113.18887 17545 ft 398 kts 103°
2026-05-04 02:37 33.28670 -113.15630 17301 ft 395 kts 103°
2026-05-04 02:37 33.28209 -113.12398 17035 ft 392 kts 103°
2026-05-04 02:37 33.27751 -113.09200 16778 ft 387 kts 103°
2026-05-04 02:38 33.27487 -113.06052 16496 ft 381 kts 94°
2026-05-04 02:38 33.27511 -113.02906 16257 ft 376 kts 91°
2026-05-04 02:38 33.27593 -112.99766 16015 ft 375 kts 91°
2026-05-04 02:38 33.27680 -112.96686 15779 ft 373 kts 91°
2026-05-04 02:39 33.27765 -112.93586 15534 ft 371 kts 91°
2026-05-04 02:39 33.27845 -112.90513 15295 ft 368 kts 91°
2026-05-04 02:39 33.27922 -112.87485 15064 ft 365 kts 91°
2026-05-04 02:39 33.27989 -112.84800 14907 ft 352 kts 91°
2026-05-04 02:40 33.28099 -112.81939 14695 ft 340 kts 88°
2026-05-04 02:40 33.28331 -112.79109 14421 ft 341 kts 86°
2026-05-04 02:40 33.28614 -112.76110 14171 ft 341 kts 86°
2026-05-04 02:40 33.28864 -112.73495 13961 ft 338 kts 86°
2026-05-04 02:41 33.29131 -112.70704 13735 ft 335 kts 86°
2026-05-04 02:41 33.29392 -112.67939 13507 ft 334 kts 86°
2026-05-04 02:41 33.29648 -112.65214 13280 ft 332 kts 86°
2026-05-04 02:41 33.29904 -112.62472 13060 ft 329 kts 87°
2026-05-04 02:42 33.30158 -112.59752 12840 ft 327 kts 87°
2026-05-04 02:42 33.30409 -112.57046 12620 ft 326 kts 87°
2026-05-04 02:42 33.30655 -112.54391 12402 ft 325 kts 87°
2026-05-04 02:42 33.30905 -112.51688 12174 ft 323 kts 87°
2026-05-04 02:43 33.31148 -112.49054 11960 ft 322 kts 87°
2026-05-04 02:43 33.31394 -112.46397 11752 ft 319 kts 87°
2026-05-04 02:43 33.31637 -112.43753 11538 ft 318 kts 87°
2026-05-04 02:43 33.31875 -112.41156 11334 ft 317 kts 87°
2026-05-04 02:44 33.32113 -112.38541 11126 ft 314 kts 87°
2026-05-04 02:44 33.32350 -112.35947 10917 ft 312 kts 87°
2026-05-04 02:44 33.32579 -112.33385 10717 ft 311 kts 88°
2026-05-04 02:44 33.32811 -112.30821 10507 ft 309 kts 87°
2026-05-04 02:45 33.33045 -112.28283 10306 ft 308 kts 88°
2026-05-04 02:45 33.33279 -112.25737 10102 ft 306 kts 88°
2026-05-04 02:45 33.33508 -112.23240 9932 ft 296 kts 88°
2026-05-04 02:45 33.33730 -112.20821 9752 ft 286 kts 88°
2026-05-04 02:46 33.33940 -112.18520 9533 ft 277 kts 88°
2026-05-04 02:46 33.34144 -112.16265 9342 ft 268 kts 88°
2026-05-04 02:46 33.34341 -112.14070 9164 ft 259 kts 88°
2026-05-04 02:46 33.34529 -112.11975 9013 ft 251 kts 89°
2026-05-04 02:47 33.34704 -112.09907 8829 ft 247 kts 91°
2026-05-04 02:47 33.34750 -112.07866 8577 ft 247 kts 95°
2026-05-04 02:47 33.34734 -112.05797 8295 ft 247 kts 95°
2026-05-04 02:47 33.34706 -112.03751 8036 ft 248 kts 96°
2026-05-04 02:48 33.34675 -112.01676 7792 ft 248 kts 95°
2026-05-04 02:48 33.34647 -111.99608 7527 ft 248 kts 95°
2026-05-04 02:48 33.34619 -111.97571 7272 ft 247 kts 95°
2026-05-04 02:48 33.34591 -111.95517 7014 ft 247 kts 95°
2026-05-04 02:49 33.34584 -111.93410 6824 ft 254 kts 93°
2026-05-04 02:49 33.34623 -111.91337 6822 ft 250 kts 92°
2026-05-04 02:49 33.34672 -111.89260 6804 ft 249 kts 92°
2026-05-04 02:49 33.34722 -111.87212 6517 ft 246 kts 92°
2026-05-04 02:50 33.34818 -111.85160 6096 ft 249 kts 83°
2026-05-04 02:50 33.35457 -111.83200 5659 ft 254 kts 63°
2026-05-04 02:50 33.36347 -111.81383 5218 ft 256 kts 60°
2026-05-04 02:50 33.37273 -111.79571 4791 ft 257 kts 59°
2026-05-04 02:51 33.38201 -111.77761 4335 ft 252 kts 60°
2026-05-04 02:51 33.39121 -111.76021 3883 ft 246 kts 53°
2026-05-04 02:51 33.40367 -111.74665 3465 ft 240 kts 28°
2026-05-04 02:51 33.41926 -111.74112 3044 ft 234 kts 355°
2026-05-04 02:52 33.43413 -111.74630 2843 ft 213 kts 320°
2026-05-04 02:52 33.44329 -111.75933 2814 ft 201 kts 289°
2026-05-04 02:52 33.44545 -111.77485 2808 ft 182 kts 265°
2026-05-04 02:52 33.44411 -111.78897 2801 ft 160 kts 259°
2026-05-04 02:53 33.44214 -111.80097 2952 ft 140 kts 253°
2026-05-04 02:53 33.44093 -111.81256 3005 ft 141 kts 263°
2026-05-04 02:53 33.44075 -111.82420 3023 ft 141 kts 264°
2026-05-04 02:53 33.44073 -111.83603 3018 ft 141 kts 265°
2026-05-04 02:54 33.44074 -111.84773 3007 ft 141 kts 266°
2026-05-04 02:54 33.44070 -111.85948 3024 ft 140 kts 266°
2026-05-04 02:54 33.44065 -111.87106 2991 ft 140 kts 267°
2026-05-04 02:54 33.44063 -111.88274 2848 ft 140 kts 267°
2026-05-04 02:55 33.44068 -111.90596 2481 ft 140 kts 265°
2026-05-04 02:55 33.44069 -111.91772 2291 ft 141 kts 265°
2026-05-04 02:55 33.44072 -111.92948 2132 ft 140 kts 265°
2026-05-04 02:56 33.44074 -111.94113 1975 ft 140 kts 264°
2026-05-04 02:56 33.44056 -111.95265 1796 ft 138 kts 270°
2026-05-04 02:56 33.44088 -111.96413 1668 ft 140 kts 267°
2026-05-04 02:56 33.44071 -111.97581 1456 ft 138 kts 267°
2026-05-04 02:57 33.44080 -111.98704 1261 ft 134 kts 269°
2026-05-04 02:57 33.44080 -111.99809 1152 ft 128 kts 270°
2026-05-04 02:57 33.44085 -112.00771 1134 ft 92 kts 270°
2026-05-04 02:57 33.44085 -112.01281 1136 ft 52 kts 270°
2026-05-04 02:58 33.44063 -112.01667 1137 ft 37 kts 234°
2026-05-04 02:58 33.43981 -112.01683 1135 ft 6 kts 111°
2026-05-04 02:58 33.43975 -112.01626 1134 ft 7 kts 91°
2026-05-04 02:58 33.43974 -112.01571 1137 ft 7 kts 90°
2026-05-04 02:59 33.43974 -112.01507 1137 ft 11 kts 89°
2026-05-04 02:59 33.43943 -112.01439 1135 ft 8 kts 158°
2026-05-04 02:59 33.43903 -112.01413 1135 ft 5 kts 105°
2026-05-04 02:59 33.43901 -112.01378 1136 ft 4 kts 90°
2026-05-04 03:00 33.43901 -112.01345 1134 ft 4 kts 90°
2026-05-04 03:00 33.43901 -112.01297 1134 ft 9 kts 89°